FW8589 Weather Reports


time (UTC)temp
F
wind
direction
speed
knots
gust
knots
rain 1hr
in
rain 24hr
in
rain mn
in
humidity
%
barometer
mb
20260507164018 66 293 9.6 12.2 0.00 0.65 0.52 85 1013.5
20260507163019 66 293 9.6 13.0 0.00 0.65 0.52 85 1013.5
20260507162017 66 293 9.6 13.0 0.00 0.65 0.52 85 1013.6
20260507161017 66 293 8.7 12.2 0.00 0.65 0.52 85 1013.6
20260507160231 66 293 8.7 11.3 0.00 0.65 0.52 85 1013.5
20260507155017 66 293 9.6 12.2 0.00 0.65 0.52 83 1013.4
20260507154018 66 293 9.6 13.9 0.00 0.65 0.52 83 1013.3
20260507153017 66 293 9.6 13.9 0.00 0.65 0.52 84 1013.3
20260507152017 66 293 9.6 13.9 0.00 0.65 0.52 83 1013.5
20260507151017 66 293 10.4 14.8 0.00 0.65 0.52 85 1013.6
20260507150017 66 270 9.6 13.9 0.00 0.65 0.52 84 1013.7
20260507145017 66 293 10.4 13.9 0.00 0.65 0.52 84 1013.6
20260507144017 65 293 12.2 14.8 0.00 0.65 0.52 84 1013.9
20260507143017 66 293 10.4 13.9 0.00 0.65 0.52 83 1013.9
20260507142017 66 293 10.4 13.0 0.00 0.65 0.52 83 1013.9
20260507141019 66 293 8.7 12.2 0.00 0.65 0.52 81 1014.0
20260507140017 66 293 10.4 13.0 0.00 0.65 0.52 82 1014.2
20260507135017 67 293 7.8 12.2 0.00 0.65 0.52 81 1014.3
20260507134229 66 270 8.7 11.3 0.00 0.65 0.52 80 1014.5
20260507133229 66 293 8.7 11.3 0.00 0.65 0.52 80 1014.8
20260507132022 66 293 7.8 10.4 0.00 0.65 0.52 82 1014.9
20260507131441 66 293 6.1 9.6 0.00 0.65 0.52 80 1015.0
20260507130018 66 293 7.8 9.6 0.00 0.65 0.52 82 1015.2
20260507125017 65 293 7.8 10.4 0.00 0.65 0.52 84 1015.1
20260507124017 65 270 7.8 9.6 0.00 0.65 0.52 83 1015.2
20260507123018 65 270 7.0 9.6 0.00 0.65 0.52 84 1015.3
20260507122017 65 270 7.0 9.6 0.00 0.65 0.52 84 1015.4
20260507121018 65 270 5.2 8.7 0.00 0.65 0.52 83 1015.3
20260507120017 65 248 5.2 7.8 0.00 0.65 0.52 85 1015.3
20260507115017 65 248 6.1 8.7 0.00 0.65 0.52 86 1015.4
20260507114017 65 248 4.3 7.8 0.00 0.65 0.52 86 1015.4
20260507113016 65 248 4.3 7.0 0.00 0.65 0.52 85 1015.5
20260507112016 65 203 4.3 6.1 0.00 0.65 0.52 86 1015.5
20260507111016 65 225 5.2 7.8 0.00 0.65 0.52 86 1015.6
20260507110018 65 203 6.1 9.6 0.00 0.65 0.52 85 1015.7
20260507105017 65 180 7.0 9.6 0.00 0.65 0.52 85 1015.7
20260507104017 65 180 7.8 11.3 0.00 0.65 0.52 84 1015.6
20260507103226 66 180 7.0 9.6 0.00 0.65 0.52 83 1015.6
20260507102017 65 180 7.0 11.3 0.00 0.65 0.52 84 1015.5
20260507101228 66 180 7.8 12.2 0.00 0.65 0.52 82 1015.6
20260507100017 66 180 8.7 13.0 0.00 0.65 0.52 82 1015.5
20260507095017 65 180 7.8 12.2 0.00 0.65 0.52 83 1015.5
20260507094016 65 180 8.7 13.0 0.00 0.65 0.52 82 1015.5
20260507093017 67 203 6.1 10.4 0.00 0.65 0.52 81 1015.6
20260507092228 67 203 6.1 8.7 0.00 0.65 0.52 81 1015.7
20260507091018 66 203 7.0 9.6 0.00 0.65 0.52 80 1015.5
20260507090016 67 158 4.3 7.8 0.00 0.65 0.52 79 1015.7
20260507085016 67 180 3.5 6.1 0.00 0.65 0.52 80 1015.8
20260507084016 67 135 5.2 8.7 0.00 0.65 0.52 80 1015.7
20260507083016 66 113 2.6 7.0 0.00 0.65 0.52 81 1015.8
20260507082018 65 158 6.1 11.3 0.00 0.65 0.52 81 1015.7
20260507081016 65 135 7.0 10.4 0.00 0.65 0.52 81 1015.8
20260507080017 65 158 5.2 11.3 0.00 0.65 0.52 81 1015.9
20260507075017 65 135 5.2 8.7 0.00 0.65 0.52 82 1015.9
20260507074017 65 90 7.0 9.6 0.00 0.65 0.52 81 1015.9
20260507073017 64 113 6.1 9.6 0.00 0.65 0.52 81 1015.9
20260507072016 64 113 7.8 12.2 0.00 0.65 0.52 81 1015.9
20260507071016 63 90 7.8 11.3 0.00 0.65 0.52 82 1016.1
20260507070016 64 90 7.0 11.3 0.00 0.65 0.52 83 1015.9
20260507065233 63 113 7.8 11.3 0.00 0.65 0.52 84 1016.0
20260507064228 63 135 5.2 10.4 0.00 0.65 0.52 86 1015.8
20260507063016 62 90 7.0 10.4 0.00 0.65 0.52 86 1015.6
20260507062016 61 90 9.6 11.3 0.00 0.65 0.52 87 1015.6
20260507061016 61 90 7.8 12.2 0.00 0.65 0.52 89 1015.3
20260507060017 61 90 8.7 11.3 0.00 0.65 0.52 90 1015.3
20260507055017 61 90 7.8 9.6 0.00 0.65 0.52 91 1015.2
20260507054016 60 90 7.8 11.3 0.00 0.65 0.52 92 1015.1
20260507053229 60 68 7.8 11.3 0.00 0.65 0.52 92 1015.2
20260507052016 60 90 7.0 9.6 0.00 0.65 0.52 93 1015.2
20260507051019 59 90 7.0 9.6 0.00 0.65 0.52 93 1015.2
20260507050018 59 90 7.8 11.3 0.00 0.65 0.52 93 1015.2
20260507045017 59 90 7.8 10.4 0.00 0.65 0.52 93 1015.1
20260507044442 59 90 7.8 11.3 0.00 0.65 0.52 94 1015.1
20260507043018 59 90 7.0 10.4 0.00 0.65 0.52 94 1014.9
20260507042017 59 68 7.8 10.4 0.00 0.65 0.52 94 1014.8
20260507041018 59 68 8.7 12.2 0.00 0.66 0.52 94 1014.8
20260507040017 59 68 8.7 11.3 0.00 0.66 0.52 95 1014.6
20260507035022 59 68 7.8 11.3 0.00 0.66 0.52 95 1014.7
20260507034017 59 68 7.8 12.2 0.00 0.68 0.52 95 1014.7
20260507033017 59 90 8.7 11.3 0.00 0.69 0.52 95 1014.8
20260507032227 59 90 8.7 11.3 0.00 0.71 0.52 95 1014.8
20260507031017 59 90 8.7 11.3 0.00 0.71 0.52 95 1014.9
20260507030017 59 68 8.7 13.0 0.00 0.71 0.52 95 1014.8
20260507025230 59 90 8.7 11.3 0.00 0.71 0.52 95 1014.8
20260507024022 59 90 9.6 13.0 0.00 0.71 0.52 96 1015.0
20260507023017 59 90 7.8 11.3 0.00 0.71 0.52 96 1014.9
20260507022017 59 90 9.6 13.0 0.00 0.71 0.52 96 1015.0
20260507021019 59 90 9.6 12.2 0.01 0.71 0.52 96 1014.8
20260507020017 59 90 9.6 13.0 0.01 0.72 0.52 96 1014.8
20260507015017 59 90 8.7 12.2 0.01 0.72 0.52 96 1014.8
20260507014017 59 90 7.8 10.4 0.01 0.73 0.52 96 1014.9
20260507013232 59 90 8.7 12.2 0.01 0.76 0.52 96 1014.9
20260507012228 59 90 7.0 10.4 0.02 0.79 0.52 96 1014.8
20260507011229 59 90 7.0 8.7 0.05 0.78 0.51 96 1014.8
20260507010017 59 90 8.7 11.3 0.05 0.78 0.51 96 1014.9
20260507005017 59 90 9.6 12.2 0.05 0.78 0.51 96 1015.1
20260507004018 59 113 9.6 13.9 0.05 0.78 0.51 96 1015.1
20260507003017 60 90 10.4 13.9 0.05 0.78 0.51 96 1015.0
20260507002017 60 113 8.7 12.2 0.04 0.78 0.50 96 1015.0
20260507001017 60 113 9.6 13.0 0.00 0.74 0.46 96 1014.9
20260507000017 60 113 9.6 13.9 0.00 0.75 0.46 96 1014.9
20260506235017 60 113 9.6 13.0 0.00 0.75 0.46 95 1014.9
20260506234017 60 113 12.2 17.4 0.00 0.75 0.46 95 1015.1
20260506233228 60 135 9.6 16.5 0.05 0.75 0.46 95 1015.0
20260506232016 60 113 13.9 20.0 0.20 0.75 0.46 95 1014.8
20260506231017 61 113 13.0 20.0 0.35 0.75 0.46 95 1014.6
20260506230017 61 113 16.5 24.3 0.46 0.75 0.46 95 1014.4
20260506225017 61 113 13.9 18.2 0.52 0.75 0.46 95 1014.7
20260506224017 61 113 13.0 17.4 0.53 0.75 0.46 96 1014.7
20260506223016 61 113 12.2 17.4 0.48 0.70 0.42 96 1015.0
20260506222017 61 68 7.0 9.6 0.33 0.54 0.26 96 1015.0
20260506221017 61 68 7.0 11.3 0.19 0.40 0.12 96 1015.0
20260506220017 61 90 9.6 11.3 0.07 0.28 0.28 96 1015.0
20260506215016 61 90 8.7 12.2 0.02 0.23 0.23 96 1015.0
20260506214016 61 113 8.7 12.2 0.01 0.22 0.22 96 1015.1
20260506213017 62 135 9.6 15.6 0.02 0.22 0.22 96 1015.2
20260506212017 62 135 11.3 15.6 0.02 0.21 0.21 96 1015.2
20260506211016 62 135 11.3 16.5 0.02 0.21 0.21 96 1015.2
20260506210016 62 135 11.3 16.5 0.03 0.21 0.21 96 1015.2
20260506205017 62 135 9.6 14.8 0.03 0.21 0.21 96 1015.2
20260506204016 62 135 9.6 13.0 0.03 0.21 0.21 96 1015.4
20260506203016 62 135 7.8 12.2 0.02 0.20 0.20 96 1015.3
20260506202016 62 158 7.8 13.0 0.02 0.20 0.20 95 1015.3
20260506201016 62 135 8.7 13.9 0.01 0.19 0.19 95 1015.2
20260506200016 62 135 10.4 15.6 0.00 0.18 0.18 95 1015.2
20260506195016 62 158 7.0 12.2 0.00 0.18 0.18 95 1014.9
20260506194016 62 135 11.3 17.4 0.00 0.18 0.18 95 1014.7
20260506193226 62 135 12.2 16.5 0.01 0.18 0.18 95 1014.4
20260506192016 62 135 13.9 20.0 0.01 0.18 0.18 95 1014.4
20260506191016 62 135 11.3 21.7 0.02 0.18 0.18 95 1014.2
20260506190232 62 135 9.6 13.9 0.02 0.18 0.18 95 1014.1
20260506185019 62 135 10.4 17.4 0.02 0.18 0.18 95 1014.1
20260506184017 62 113 13.9 22.6 0.02 0.18 0.18 95 1014.1
20260506183017 62 135 13.0 18.2 0.02 0.17 0.17 95 1013.9
20260506182018 63 135 12.2 17.4 0.02 0.17 0.17 95 1013.9
20260506181441 63 135 12.2 18.2 0.02 0.17 0.17 95 1014.0
20260506180017 63 135 13.0 18.2 0.01 0.16 0.16 95 1014.0
20260506175017 63 135 10.4 15.6 0.01 0.16 0.16 94 1014.1
20260506174017 63 135 8.7 12.2 0.01 0.16 0.16 94 1014.1
20260506173017 63 158 10.4 14.8 0.00 0.15 0.15 94 1014.2
20260506172017 63 135 10.4 17.4 0.00 0.15 0.15 93 1014.1
20260506171017 63 158 7.8 13.0 0.00 0.15 0.15 92 1014.0
20260506170020 64 158 9.6 15.6 0.00 0.15 0.15 93 1014.1
20260506165018 64 158 11.3 20.0 0.00 0.15 0.15 92 1014.1